Weather in Bogazkent

Turkey     36°51′30″N   31°09′33″E
temp.,
°C
wind,
m/s
gust,
m/s
humid.,
%
clouds,
%
prec.,
mm/h
press.,
hPa
HPBL,
m
18 may, tue
tue1800:00+21ne11667 0.0 1011187
03:00+20nnw22683 0.0 1010128
06:00+20nw00575 0.0 1011116
09:00+22se346640 0.0 1013495
12:00+22se54710 0.0 1013552
15:00+23se55720 0.0 1012497
18:00+22se33730 0.0 1012436
21:00+22ese11770 0.0 1012236
19 may, wed
wed1900:00+21ne22800 0.0 1012235
03:00+20nnw11800 0.0 1011126
06:00+20wnw22680 0.0 1012128
09:00+21ssw125687 0.0 1013192
12:00+23sse55700 0.0 1013426
15:00+23sse44730 0.0 1013405
18:00+23sse22700 0.0 1012223
21:00+22e00764 0.0 101211
20 may, thu
thu2000:00+22nw22725 0.0 101164
03:00+21n11710 0.0 101075
06:00+21nne11680 0.0 101084
09:00+23ese22660 0.0 1011234
12:00+23se67750 0.0 1011426
15:00+23sse45720 0.0 1011455
18:00+23sse34710 0.0 1010401
21:00+22se11785 0.0 101033
21 may, fri
fri2100:00+22ene22751 0.0 1009234
03:00+21ene44752 0.0 1009399
06:00+21e45765 0.0 1009472
09:00+22ese56740 0.0 1009542
12:00+23sse67710 0.0 1009464
15:00+23sse89740 0.0 1008484
18:00+23sse810750 0.0 1007606
21:00+22sse911715 0.0 1007834
22 may, sat
sat2200:00+21sse88647 0.0 1006718
03:00+20ese1112650 0.0 10051042
06:00+20e12126993 0.0 10061191
09:00+20e665922 0.6 10081286
12:00+22ssw3447100 0.1 1008660
15:00+24wsw694616 0.1 1007522
18:00+24nw12134541 0.0 1006658
21:00+21nw12115316 0.0 1008590